Khabarovsk, Russia

3:44 PM +10 on May 23, 2017 (GMT +1000)
Novy

Weather History for UHHH - August, 2013

Change the Weather History Date:

Monday, August 26, 2013

  Actual Average Record
Temperature  
Mean Temperature 63 °F -  
Max Temperature 69 °F 65 °F 82 °F (2006)
Min Temperature 57 °F 47 °F 50 °F (2001)
Degree Days  
Heating Degree Days 2    
Growing Degree Days 13 (Base 50)    
Moisture  
Dew Point 55 °F    
Average Humidity 81    
Maximum Humidity 100    
Minimum Humidity 49    
Precipitation  
Precipitation 0.00 in 0.13 in - ()
Sea Level Pressure  
Sea Level Pressure 29.61 in    
Wind  
Wind Speed 6 mph ()    
Max Wind Speed 18 mph    
Max Gust Speed -    
Visibility 6.2 miles    
Events Fog    
Averages and records for this station are not official NWS values.
T = Trace of Precipitation, MM = Missing Value Source: Averaged Metar Reports

Daily Weather History Graph

Daily Weather History Graph

Search for Another Location

Airport or City:

Trip Planner

Search our weather history database for the weather conditions in past years. The results will help you decide how hot, cold, wet, or windy it might be!

Date:

Astronomy

Aug. 26, 2013 Rise Set
Actual Time 7:07 AM +11 8:53 PM +11
Civil Twilight 6:34 AM +11 9:26 PM +11
Nautical Twilight 5:53 AM +11 10:07 PM +11
Astronomical Twilight 5:08 AM +11 10:52 PM +11
Moon 11:07 PM +11 (8/26) 1:03 PM +11 (8/26)
Length of Visible Light 14h 52m
Length of Day
13h 45m
Waning Gibbous, 72% of the Moon is Illuminated
Aug 26
Waning Gibbous
Aug 28
Last Quarter
Sep 5
New
Sep 13
First Quarter
Sep 19
Full

Hourly Weather History & Observations

Time (+11) Temp. Dew Point Humidity Pressure Visibility Wind Dir Wind Speed Gust Speed Precip Events Conditions
12:00 AM 60.8 °F 60.8 °F 100% 29.62 in - SW 2.2 mph - N/A   Clear
12:30 AM 59.0 °F 59.0 °F 100% 29.59 in - SW 4.5 mph - N/A   Clear
1:00 AM 59.0 °F 59.0 °F 100% 29.59 in 6.2 mi SSE 4.5 mph - N/A Fog Shallow Fog
1:30 AM 60.8 °F 60.8 °F 100% 29.59 in 6.2 mi Variable 2.2 mph - N/A Fog Shallow Fog
2:00 AM 59.0 °F 59.0 °F 100% 29.59 in 6.2 mi Variable 2.2 mph - N/A Fog Shallow Fog
2:30 AM 59.0 °F 59.0 °F 100% 29.59 in 6.2 mi Variable 2.2 mph - N/A Fog Shallow Fog
3:00 AM 57.2 °F 57.2 °F 100% 29.59 in 6.2 mi Calm Calm - N/A Fog Shallow Fog
3:30 AM 57.2 °F 57.2 °F 100% 29.56 in 6.2 mi Variable 2.2 mph - N/A Fog Shallow Fog
4:00 AM 57.2 °F 57.2 °F 100% 29.56 in 6.2 mi Variable 2.2 mph - N/A Fog Shallow Fog
4:30 AM 59.0 °F 59.0 °F 100% 29.59 in 6.2 mi Variable 2.2 mph - N/A Fog Shallow Fog
5:00 AM 59 °F 59 °F 100% 29.60 in 6 mi SSW 2.2 mph - - Fog Patches of Fog
5:00 AM 59.0 °F 59.0 °F 100% 29.59 in 6.2 mi Variable 2.2 mph - N/A Fog Shallow Fog
5:30 AM 57.2 °F 57.2 °F 100% 29.59 in 6.2 mi Variable 2.2 mph - N/A Fog Shallow Fog
6:00 AM 57.2 °F 57.2 °F 100% 29.59 in 6.2 mi Variable 2.2 mph - N/A Fog Shallow Fog
6:30 AM 57.2 °F 57.2 °F 100% 29.59 in - South 4.5 mph - N/A   Clear
7:00 AM 57.2 °F 57.2 °F 100% 29.62 in 6.2 mi WSW 11.2 mph - N/A   Mostly Cloudy
7:30 AM 57.2 °F 57.2 °F 100% 29.62 in 6.2 mi WSW 8.9 mph - N/A   Mostly Cloudy
8:00 AM 57.2 °F 57.2 °F 100% 29.62 in - WSW 8.9 mph - N/A   Clear
8:30 AM 57.2 °F 55.4 °F 94% 29.62 in - WSW 13.4 mph - N/A   Clear
9:00 AM 59.0 °F 55.4 °F 88% 29.62 in - WSW 13.4 mph - N/A   Clear
9:30 AM 60.8 °F 55.4 °F 82% 29.62 in 6.2 mi WSW 13.4 mph - N/A   Mostly Cloudy
10:00 AM 60.8 °F 55.4 °F 82% 29.62 in - WSW 11.2 mph - N/A   Clear
10:30 AM 62.6 °F 57.2 °F 82% 29.62 in 6.2 mi WSW 11.2 mph - N/A   Mostly Cloudy
11:00 AM 62 °F 56 °F 75% 29.62 in 6 mi West 11.2 mph - -   Partly Cloudy
11:00 AM 62.6 °F 55.4 °F 77% 29.62 in - West 13.4 mph - N/A   Clear
11:30 AM 62.6 °F 55.4 °F 77% 29.62 in 6.2 mi West 11.2 mph - N/A   Mostly Cloudy
12:00 PM 62.6 °F 57.2 °F 82% 29.62 in 6.2 mi WSW 11.2 mph - N/A   Mostly Cloudy
12:30 PM 62.6 °F 57.2 °F 82% 29.62 in 6.2 mi WSW 11.2 mph - N/A   Mostly Cloudy
1:00 PM 62.6 °F 57.2 °F 82% 29.62 in 6.2 mi SW 11.2 mph - N/A   Mostly Cloudy
1:30 PM 64.4 °F 55.4 °F 73% 29.62 in 6.2 mi WSW 13.4 mph - N/A   Mostly Cloudy
2:00 PM 62.6 °F 55.4 °F 77% 29.62 in 6.2 mi WSW 15.7 mph - N/A   Mostly Cloudy
2:30 PM 64.4 °F 55.4 °F 73% 29.62 in 6.2 mi WSW 15.7 mph - N/A   Mostly Cloudy
3:00 PM 66.2 °F 55.4 °F 68% 29.62 in 6.2 mi WSW 13.4 mph - N/A   Mostly Cloudy
3:30 PM 66.2 °F 55.4 °F 68% 29.62 in 6.2 mi WSW 13.4 mph - N/A   Scattered Clouds
4:00 PM 68.0 °F 55.4 °F 64% 29.59 in 6.2 mi WSW 11.2 mph - N/A   Scattered Clouds
4:30 PM 68.0 °F 55.4 °F 64% 29.59 in 6.2 mi SW 8.9 mph - N/A   Scattered Clouds
5:00 PM 68 °F 54 °F 51% 29.61 in 6 mi WSW 11.2 mph - -   Partly Cloudy
5:00 PM 68.0 °F 53.6 °F 60% 29.59 in 6.2 mi WSW 13.4 mph - N/A   Scattered Clouds
5:30 PM 69.8 °F 50.0 °F 49% 29.59 in 6.2 mi West 8.9 mph - N/A   Scattered Clouds
6:00 PM 69.8 °F 50.0 °F 49% 29.59 in 6.2 mi West 13.4 mph - N/A   Scattered Clouds
6:30 PM 68.0 °F 50.0 °F 52% 29.62 in 6.2 mi WSW 17.9 mph - N/A   Scattered Clouds
7:00 PM 66.2 °F 48.2 °F 52% 29.62 in 6.2 mi SW 13.4 mph - N/A   Scattered Clouds
7:30 PM 66.2 °F 48.2 °F 52% 29.62 in 6.2 mi SW 8.9 mph - N/A   Scattered Clouds
8:00 PM 64.4 °F 50.0 °F 59% 29.62 in 6.2 mi SSW 6.7 mph - N/A   Scattered Clouds
8:30 PM 62.6 °F 50.0 °F 63% 29.62 in 6.2 mi SSW 6.7 mph - N/A   Scattered Clouds
9:00 PM 62.6 °F 50.0 °F 63% 29.62 in 6.2 mi SSW 6.7 mph - N/A   Scattered Clouds
9:30 PM 60.8 °F 51.8 °F 72% 29.62 in 6.2 mi SSW 4.5 mph - N/A   Partly Cloudy
10:00 PM 59.0 °F 51.8 °F 77% 29.62 in 6.2 mi SSW 4.5 mph - N/A   Scattered Clouds
10:30 PM 59.0 °F 51.8 °F 77% 29.62 in - South 6.7 mph - N/A   Clear
11:00 PM 57 °F 53 °F 80% 29.65 in 6 mi SSW 6.7 mph - -   Scattered Clouds
11:00 PM 57.2 °F 53.6 °F 88% 29.62 in - SSW 6.7 mph - N/A   Clear
11:30 PM 57.2 °F 51.8 °F 82% 29.62 in - SSW 6.7 mph - N/A   Clear